Weather reports worldwide

Advertisment
Verhnedvinsk, Belarus (26554): temperature & dewpoint: 23.03.2020 00:00:00 - 29.03.2020 00:00:00 (MSK)Verhnedvinsk, Belarus (26554): wind speed: 23.03.2020 00:00:00 - 29.03.2020 00:00:00 (MSK)Verhnedvinsk, Belarus (26554): wind direction: 23.03.2020 00:00:00 - 29.03.2020 00:00:00 (MSK)Verhnedvinsk, Belarus (26554): reduced air pressure: 23.03.2020 00:00:00 - 29.03.2020 00:00:00 (MSK)Verhnedvinsk, Belarus (26554): visibility: 23.03.2020 00:00:00 - 29.03.2020 00:00:00 (MSK)
Date & Time tt [°C] td [°C] ff [km/h] ff [kn] dd ppp [hPa] vv [km]
29.03.2020 00:00:00 - - - - - - -
28.03.2020 23:00:00 - - - - - - -
28.03.2020 22:00:00 - - - - - - -
28.03.2020 21:00:00 7,6 -4,2 0 0 N 1014,8 10
28.03.2020 20:00:00 - - - - - - -
28.03.2020 19:00:00 - - - - - - -
28.03.2020 18:00:00 15,0 -7,8 7 4 W 1015,5 10
28.03.2020 17:00:00 - - - - - - -
28.03.2020 16:00:00 - - - - - - -
28.03.2020 15:00:00 14,9 -4,0 7 4 W 1018,1 10
28.03.2020 14:00:00 - - - - - - -
28.03.2020 13:00:00 - - - - - - -
28.03.2020 12:00:00 10,6 -5,8 4 2 SW 1021,1 10
28.03.2020 11:00:00 - - - - - - -
28.03.2020 10:00:00 - - - - - - -
28.03.2020 09:00:00 2,9 -3,2 0 0 N 1022,9 10
28.03.2020 08:00:00 - - - - - - -
28.03.2020 07:00:00 - - - - - - -
28.03.2020 06:00:00 -2,4 -4,1 0 0 N 1024,5 10
28.03.2020 05:00:00 - - - - - - -
28.03.2020 04:00:00 - - - - - - -
28.03.2020 03:00:00 -1,0 -4,4 0 0 N 1026,2 10
28.03.2020 02:00:00 - - - - - - -
28.03.2020 01:00:00 - - - - - - -
28.03.2020 00:00:00 2,0 -5,9 0 0 N 1027,7 12
27.03.2020 23:00:00 - - - - - - -
27.03.2020 22:00:00 - - - - - - -
27.03.2020 21:00:00 6,3 -6,0 4 2 ESE 1028,2 15
27.03.2020 20:00:00 - - - - - - -
27.03.2020 19:00:00 - - - - - - -
27.03.2020 18:00:00 12,5 -4,2 7 4 ESE 1029,6 15
27.03.2020 17:00:00 - - - - - - -
27.03.2020 16:00:00 - - - - - - -
27.03.2020 15:00:00 13,0 -5,6 7 4 E 1032,2 15
27.03.2020 14:00:00 - - - - - - -
27.03.2020 13:00:00 - - - - - - -
27.03.2020 12:00:00 10,3 -3,8 7 4 E 1034,3 12
27.03.2020 11:00:00 - - - - - - -
27.03.2020 10:00:00 - - - - - - -
27.03.2020 09:00:00 2,8 -2,7 0 0 N 1035,9 10
27.03.2020 08:00:00 - - - - - - -
27.03.2020 07:00:00 - - - - - - -
27.03.2020 06:00:00 -3,6 -4,9 0 0 N 1036,2 10
27.03.2020 05:00:00 - - - - - - -
27.03.2020 04:00:00 - - - - - - -
27.03.2020 03:00:00 -3,0 -4,6 0 0 N 1035,8 10
27.03.2020 02:00:00 - - - - - - -
27.03.2020 01:00:00 - - - - - - -
27.03.2020 00:00:00 -0,9 -4,8 0 0 N 1035,8 10
26.03.2020 23:00:00 - - - - - - -
26.03.2020 22:00:00 - - - - - - -
26.03.2020 21:00:00 4,7 -6,2 0 0 N 1035,8 10
26.03.2020 20:00:00 - - - - - - -
26.03.2020 19:00:00 - - - - - - -
26.03.2020 18:00:00 12,0 -7,4 4 2 WSW 1035,3 12
26.03.2020 17:00:00 - - - - - - -
26.03.2020 16:00:00 - - - - - - -
26.03.2020 15:00:00 11,2 -8,7 7 4 SSW 1036,7 12
26.03.2020 14:00:00 - - - - - - -
26.03.2020 13:00:00 - - - - - - -
26.03.2020 12:00:00 7,5 -6,6 11 6 W 1037,7 10
26.03.2020 11:00:00 - - - - - - -
26.03.2020 10:00:00 - - - - - - -
26.03.2020 09:00:00 0,5 -6,2 4 2 WSW 1037,8 10
26.03.2020 08:00:00 - - - - - - -
26.03.2020 07:00:00 - - - - - - -
26.03.2020 06:00:00 -3,5 -5,8 0 0 N 1037,4 12
26.03.2020 05:00:00 - - - - - - -
26.03.2020 04:00:00 - - - - - - -
26.03.2020 03:00:00 -0,6 -8,1 4 2 SSW 1036,9 12
26.03.2020 02:00:00 - - - - - - -
26.03.2020 01:00:00 - - - - - - -
26.03.2020 00:00:00 1,1 -7,9 7 4 WSW 1036,2 12
25.03.2020 23:00:00 - - - - - - -
25.03.2020 22:00:00 - - - - - - -
25.03.2020 21:00:00 4,5 -9,3 4 2 SW 1036,0 12
25.03.2020 20:00:00 - - - - - - -
25.03.2020 19:00:00 - - - - - - -
25.03.2020 18:00:00 8,9 -8,6 14 8 WSW 1036,0 14
25.03.2020 17:00:00 - - - - - - -
25.03.2020 16:00:00 - - - - - - -
25.03.2020 15:00:00 8,5 -10,4 14 8 SW 1037,2 15
25.03.2020 14:00:00 - - - - - - -
25.03.2020 13:00:00 - - - - - - -
25.03.2020 12:00:00 4,7 -9,1 18 10 W 1038,4 15
25.03.2020 11:00:00 - - - - - - -
25.03.2020 10:00:00 - - - - - - -
25.03.2020 09:00:00 -0,6 -5,6 11 6 WSW 1038,2 15
25.03.2020 08:00:00 - - - - - - -
25.03.2020 07:00:00 - - - - - - -
25.03.2020 06:00:00 -2,5 -8,0 7 4 SW 1038,1 12
25.03.2020 05:00:00 - - - - - - -
25.03.2020 04:00:00 - - - - - - -
25.03.2020 03:00:00 -2,1 -8,2 7 4 SW 1037,2 12
25.03.2020 02:00:00 - - - - - - -
25.03.2020 01:00:00 - - - - - - -
25.03.2020 00:00:00 -1,6 -7,7 4 2 WSW 1037,3 12
24.03.2020 23:00:00 - - - - - - -
24.03.2020 22:00:00 - - - - - - -
24.03.2020 21:00:00 0,7 -9,1 7 4 W 1037,2 15
24.03.2020 20:00:00 - - - - - - -
24.03.2020 19:00:00 - - - - - - -
24.03.2020 18:00:00 4,3 -9,8 11 6 W 1037,5 15
24.03.2020 17:00:00 - - - - - - -
24.03.2020 16:00:00 - - - - - - -
24.03.2020 15:00:00 4,2 -11,1 11 6 W 1038,8 20
24.03.2020 14:00:00 - - - - - - -
24.03.2020 13:00:00 - - - - - - -
24.03.2020 12:00:00 2,4 -9,8 7 4 W 1040,5 20
24.03.2020 11:00:00 - - - - - - -
24.03.2020 10:00:00 - - - - - - -
24.03.2020 09:00:00 -3,1 -6,2 0 0 N 1041,5 15
24.03.2020 08:00:00 - - - - - - -
24.03.2020 07:00:00 - - - - - - -
24.03.2020 06:00:00 -6,2 -6,7 4 2 W 1041,1 10
24.03.2020 05:00:00 - - - - - - -
24.03.2020 04:00:00 - - - - - - -
24.03.2020 03:00:00 -5,3 -7,3 4 2 W 1041,0 15
24.03.2020 02:00:00 - - - - - - -
24.03.2020 01:00:00 - - - - - - -
24.03.2020 00:00:00 -3,7 -8,4 4 2 NW 1040,8 15
23.03.2020 23:00:00 - - - - - - -
23.03.2020 22:00:00 - - - - - - -
23.03.2020 21:00:00 -1,4 -10,5 4 2 NNW 1040,0 15
23.03.2020 20:00:00 - - - - - - -
23.03.2020 19:00:00 - - - - - - -
23.03.2020 18:00:00 2,3 -13,5 7 4 NNW 1040,1 20
23.03.2020 17:00:00 - - - - - - -
23.03.2020 16:00:00 - - - - - - -
23.03.2020 15:00:00 2,2 -13,6 4 2 N 1041,4 20
23.03.2020 14:00:00 - - - - - - -
23.03.2020 13:00:00 - - - - - - -
23.03.2020 12:00:00 -0,2 -13,2 14 8 ENE 1042,8 20
23.03.2020 11:00:00 - - - - - - -
23.03.2020 10:00:00 - - - - - - -
23.03.2020 09:00:00 -3,2 -9,2 4 2 NE 1042,8 15
23.03.2020 08:00:00 - - - - - - -
23.03.2020 07:00:00 - - - - - - -
23.03.2020 06:00:00 -6,5 -9,7 4 2 NE 1041,5 15
23.03.2020 05:00:00 - - - - - - -
23.03.2020 04:00:00 - - - - - - -
23.03.2020 03:00:00 -4,9 -10,3 7 4 NNE 1040,7 15
23.03.2020 02:00:00 - - - - - - -
23.03.2020 01:00:00 - - - - - - -
23.03.2020 00:00:00 -4,1 -10,9 7 4 NNE 1039,5 15

tt = temperature
td = dewpoint
ff = wind speed
dd = wind direction
ppp = reduced air pressure
vv = visibility

Next stations